[[{"header":{"parameterUnit":"m.s-1","parameterCategory":1,"la1":30.2991,"la2":30.254,"lo1":-89.0895,"lo2":-89.0444,"dy":0.0017,"dx":0.0017,"nx":28,"ny":28,"refTime":"2026-01-09T03:00:00:Z","depth":0,"parameterNumber":2,"parameterNumberName":"U-component_of_WINDS"},"data":[0,0,0,0,0,0,0,0,0,0,0,0,0,0,0,0,0,0,0,0,0,0,0,0,0,0,0,0,0,0,0,0,0,0,0,0,0,0,0,0,0,0,0,0,0,0,0,0,0,0,0,0,0,0,0,0,0,0,2.5382,2.5381,0,2.5326,2.5326,2.5325,2.5303,2.5303,2.5303,2.5304,2.5245,2.5244,2.5242,0,0,0,0,0,0,0,0,0,0,0,0,0,2.5472,2.5471,2.5382,2.5381,2.5381,2.5326,2.5326,2.5325,2.5303,2.5303,2.5303,2.5304,2.5246,2.5244,2.5242,0,0,0,0,0,0,0,0,0,0,0,0,0,2.5426,2.547,2.5382,2.5363,2.5361,2.5326,2.5326,2.5325,2.5303,2.5303,2.5303,2.5304,2.5247,2.5244,2.5242,2.5221,0,0,2.5234,2.5233,0,0,0,0,0,0,0,0,2.5429,2.5423,2.5367,2.5365,2.5362,2.5322,2.5336,2.529,2.5303,2.5325,2.5304,2.5304,2.5271,2.5266,2.5255,2.5219,2.5216,2.5234,2.5232,2.5231,2.523,0,0,0,0,0,0,0,2.5432,2.5425,2.536,2.5366,2.5363,2.5358,2.5352,2.5327,2.5297,2.5323,2.5321,2.5315,2.5269,2.5258,2.5254,2.5215,2.5234,2.5232,2.523,2.5229,2.5164,2.5164,0,0,0,0,0,0,2.5438,2.5428,2.5362,2.5358,2.5397,2.5357,2.535,2.5335,2.5297,2.5292,2.5315,2.5314,2.5262,2.5257,2.5251,2.5228,2.5231,2.5229,2.5227,2.5164,2.5164,2.5164,0,0,0,0,0,0,2.544,2.5433,2.5364,2.5393,2.5384,2.5355,2.5338,2.5333,2.5321,2.5291,2.5286,2.5308,2.5262,2.5255,2.523,2.5225,2.5228,2.5225,2.5164,2.5164,2.5164,2.5178,0,0,0,0,0,0,2.5443,2.5433,2.5425,2.5393,2.5382,2.5343,2.5338,2.5332,2.5317,2.5316,2.5284,2.5278,2.5261,2.5234,2.5228,2.5222,2.5223,2.5165,2.5164,2.5164,2.5178,2.5179,2.5179,0,0,0,0,0,2.5446,2.543,2.5424,2.5416,2.537,2.5342,2.5336,2.5317,2.5317,2.5308,2.529,2.528,2.5227,2.5232,2.5224,2.5218,2.5165,2.5164,2.5164,2.5178,2.5179,2.5179,0,0,0,0,0,0,2.546,2.5425,2.5418,2.5391,2.537,2.5339,2.5327,2.5318,2.5296,2.5296,2.5273,2.5266,2.5244,2.5228,2.5234,2.5198,2.5195,2.5193,2.5209,2.5209,2.5209,2.5213,2.5221,0,0,0,0,0,2.546,2.544,2.5411,2.539,2.538,2.5356,2.5342,2.533,2.5307,2.5298,2.5277,2.5256,2.5235,2.5221,2.52,2.5177,2.517,2.5169,2.5169,2.517,2.5168,2.5158,2.5157,2.5162,2.5162,2.5162,0,0,2.546,2.5438,2.5426,2.5392,2.5374,2.5355,2.5348,2.5327,2.5313,2.5295,2.527,2.5255,2.523,2.5206,2.5195,2.5193,2.5166,2.5169,2.517,2.5168,2.5157,2.5157,2.5156,2.5162,2.5162,2.5162,0,0,2.5449,2.543,2.5412,2.5395,2.537,2.5354,2.535,2.5321,2.5311,2.5286,2.5274,2.5257,2.522,2.5204,2.5191,2.5179,2.517,2.5173,2.5175,2.5165,2.5165,2.5164,2.5162,2.5161,2.5172,2.5172,2.5172,0,2.5451,2.5421,2.5403,2.5384,2.5371,2.5356,2.5338,2.5323,2.5291,2.5282,2.5281,2.5238,2.5219,2.5193,2.5191,2.518,2.5176,2.5176,2.5166,2.5166,2.5165,2.5163,2.5162,2.5173,2.5172,2.5172,2.5172,0,2.5427,2.5407,2.5396,2.5367,2.5353,2.5334,2.5315,2.5302,2.5292,2.5278,2.5255,2.5234,2.5209,2.5202,2.5191,2.5176,2.5176,2.5171,2.5167,2.5166,2.5163,2.5162,2.5173,2.5173,2.5173,2.5173,0,0,2.542,2.5386,2.5382,2.537,2.5343,2.5327,2.531,2.5288,2.5278,2.5258,2.5244,2.5216,2.5212,2.5197,2.5185,2.5177,2.5172,2.5173,2.5172,2.5174,2.5156,2.516,2.5159,2.5166,2.5166,2.5166,2.5159,0,2.5407,2.5375,2.536,2.5335,2.5318,2.5306,2.5291,2.5273,2.5261,2.5245,2.5231,2.5212,2.5207,2.5199,2.519,2.5174,2.5168,2.5175,2.5154,2.5153,2.516,2.5158,2.5161,2.5155,2.5157,2.5157,2.5157,0,2.5385,2.5368,2.5342,2.532,2.5312,2.5299,2.5279,2.5264,2.5245,2.5237,2.5223,2.5212,2.5195,2.5194,2.5171,2.5177,2.5168,2.5159,2.5158,2.5155,2.5154,2.5155,2.5153,2.5152,2.5155,2.5155,2.5155,0,2.5385,2.5355,2.5336,2.5326,2.53,2.5292,2.528,2.5262,2.5251,2.5234,2.5226,2.5207,2.5197,2.5183,2.5168,2.5169,2.5148,2.5145,2.5142,2.5142,2.5137,2.5137,2.5133,2.5131,2.5131,2.5131,2.5131,0,2.5372,2.5356,2.5336,2.5324,2.5308,2.5293,2.5277,2.5265,2.525,2.5236,2.5225,2.5213,2.5194,2.518,2.5168,2.5153,2.5148,2.5141,2.5139,2.5142,2.5143,2.5136,2.5136,2.5131,2.5131,2.5131,2.5131,0,2.5368,2.5353,2.5332,2.5311,2.5305,2.5294,2.5276,2.5265,2.5254,2.5238,2.5233,2.5214,2.5198,2.5182,2.516,2.5152,2.5137,2.5133,2.5144,2.5142,2.5139,2.514,2.513,2.5129,2.5127,2.5127,2.5127,0,2.536,2.5348,2.5327,2.5318,2.5307,2.5292,2.5282,2.5268,2.5257,2.5237,2.5229,2.5213,2.5198,2.5173,2.5157,2.5141,2.5137,2.5135,2.5134,2.514,2.5138,2.5139,2.5139,2.5135,2.5135,2.5135,2.5135,0,2.5348,2.5343,2.5328,2.5312,2.53,2.5286,2.5272,2.5266,2.5249,2.5238,2.5222,2.5211,2.519,2.5174,2.5157,2.5146,2.5138,2.5136,2.5135,2.5138,2.5145,2.5143,2.5145,2.5136,2.5136,2.5136,2.5136,2.5136,2.5343,2.5333,2.5318,2.5303,2.5291,2.528,2.5269,2.5258,2.5244,2.5227,2.5219,2.5204,2.5189,2.5165,2.5155,2.5143,2.5141,2.5138,2.5138,2.5137,2.5139,2.5148,2.514,2.514,2.514,2.514,2.5139,0,2.5331,2.5322,2.5309,2.5291,2.528,2.5275,2.5261,2.5252,2.5238,2.5225,2.5213,2.5196,2.5181,2.5167,2.5152,2.5145,2.5142,2.5142,2.5142,2.514,2.5141,2.5144,2.5145,2.5145,2.5145,2.5145,2.5145,2.5145,2.5324,2.5309,2.5303,2.5283,2.5273,2.5258,2.5251,2.5241,2.5231,2.5213,2.5201,2.5192,2.5179,2.5164,2.5151,2.5147,2.5143,2.5144,2.5139,2.514,2.514,2.5139,2.5142,2.5143,2.5143,2.514,2.514,2.514]},{"header":{"parameterUnit":"m.s-1","parameterCategory":1,"la1":30.2991,"la2":30.254,"lo1":-89.0895,"lo2":-89.0444,"dy":0.0017,"dx":0.0017,"nx":28,"ny":28,"refTime":"2026-01-09T03:00:00:Z","depth":0,"parameterNumber":3,"parameterNumberName":"V-component_of_WINDS"},"data":[0,0,0,0,0,0,0,0,0,0,0,0,0,0,0,0,0,0,0,0,0,0,0,0,0,0,0,0,0,0,0,0,0,0,0,0,0,0,0,0,0,0,0,0,0,0,0,0,0,0,0,0,0,0,0,0,0,0,3.2444,3.2445,0,3.2532,3.2533,3.2534,3.2551,3.255,3.2549,3.2549,3.2639,3.2642,3.2645,0,0,0,0,0,0,0,0,0,0,0,0,0,3.2291,3.2294,3.2444,3.2445,3.2446,3.2532,3.2533,3.2534,3.2551,3.255,3.2549,3.2548,3.2638,3.2642,3.2645,0,0,0,0,0,0,0,0,0,0,0,0,0,3.2366,3.2295,3.2443,3.2465,3.2467,3.2531,3.2533,3.2534,3.2551,3.255,3.2549,3.2548,3.2637,3.2641,3.2646,3.2695,0,0,3.266,3.2662,0,0,0,0,0,0,0,0,3.2362,3.2372,3.246,3.2463,3.2466,3.2529,3.2512,3.2588,3.2551,3.2519,3.2549,3.2547,3.2603,3.2611,3.263,3.2699,3.2703,3.266,3.2663,3.2665,3.2666,0,0,0,0,0,0,0,3.2357,3.2368,3.2478,3.2462,3.2465,3.247,3.2479,3.2527,3.2566,3.2522,3.2523,3.2534,3.2605,3.2625,3.2632,3.2705,3.266,3.2664,3.2667,3.2669,3.2822,3.2824,0,0,0,0,0,0,3.2348,3.2364,3.2476,3.2481,3.241,3.2474,3.2484,3.251,3.2566,3.2573,3.2534,3.2534,3.2618,3.2626,3.2635,3.2699,3.2665,3.2669,3.2672,3.2821,3.2823,3.2824,0,0,0,0,0,0,3.2344,3.2357,3.2472,3.2423,3.2438,3.2477,3.2506,3.2512,3.2533,3.2575,3.2582,3.2548,3.2617,3.2629,3.2681,3.2702,3.2671,3.2676,3.282,3.2822,3.2823,3.2825,0,0,0,0,0,0,3.234,3.2356,3.2375,3.2423,3.244,3.2516,3.2507,3.2515,3.254,3.2541,3.2589,3.2597,3.2617,3.2674,3.2685,3.2708,3.2679,3.2818,3.282,3.2823,3.2823,3.2827,3.283,0,0,0,0,0,3.2334,3.2371,3.2376,3.2389,3.2465,3.2517,3.2527,3.255,3.2542,3.2562,3.2589,3.2595,3.2697,3.2679,3.2692,3.2716,3.2817,3.282,3.2823,3.2822,3.2826,3.2829,0,0,0,0,0,0,3.2324,3.2378,3.2383,3.2437,3.2472,3.252,3.2545,3.2553,3.2592,3.2591,3.2618,3.2629,3.268,3.2703,3.2681,3.2768,3.2757,3.2762,3.2751,3.2756,3.2759,3.2753,3.2683,0,0,0,0,0,3.2328,3.2366,3.2411,3.2454,3.2471,3.2505,3.2529,3.2544,3.2581,3.2597,3.2628,3.2665,3.2705,3.2732,3.2771,3.2826,3.2838,3.2849,3.2852,3.2855,3.286,3.2893,3.2899,3.2834,3.2834,3.2834,0,0,3.2336,3.237,3.2393,3.2453,3.2482,3.2521,3.2518,3.2559,3.2589,3.2603,3.2655,3.2679,3.2722,3.2776,3.2802,3.2797,3.2881,3.2859,3.286,3.2864,3.2897,3.2903,3.2909,3.2836,3.2836,3.2835,0,0,3.2372,3.2401,3.2441,3.2471,3.2516,3.2538,3.2548,3.2595,3.2612,3.2664,3.2676,3.2712,3.2781,3.2812,3.2836,3.2886,3.2894,3.2898,3.2916,3.2948,3.2953,3.2958,3.2978,3.2984,3.2903,3.2903,3.2903,0,3.2377,3.2437,3.2461,3.2503,3.253,3.2544,3.2586,3.2613,3.2668,3.2687,3.2681,3.2769,3.2799,3.2862,3.2875,3.2893,3.2906,3.2893,3.295,3.2955,3.296,3.298,3.2987,3.2903,3.2903,3.2903,3.2903,0,3.2442,3.2484,3.2511,3.2565,3.2594,3.2636,3.2666,3.2694,3.2706,3.273,3.2784,3.282,3.2869,3.2884,3.2896,3.295,3.2946,3.2945,3.2934,3.2966,3.2985,3.2993,3.2904,3.2904,3.2903,3.2903,0,0,3.2474,3.2542,3.2552,3.2577,3.2628,3.2661,3.2704,3.2751,3.2775,3.2813,3.2851,3.2909,3.2909,3.2937,3.2953,3.2981,3.3021,3.2976,3.2978,3.2985,3.3085,3.3087,3.3095,3.3026,3.3027,3.3028,3.3082,0,3.2518,3.2595,3.2618,3.2683,3.2723,3.2738,3.2776,3.2811,3.2835,3.2872,3.2898,3.294,3.2935,3.2953,3.2981,3.301,3.3042,3.3006,3.3063,3.3064,3.3053,3.3104,3.3106,3.3155,3.3089,3.309,3.3091,0,3.258,3.262,3.2689,3.2737,3.2754,3.2788,3.2834,3.2869,3.2911,3.2926,3.2958,3.2972,3.3019,3.3004,3.307,3.3045,3.307,3.3087,3.309,3.3097,3.3081,3.3116,3.3171,3.318,3.3103,3.3102,3.3101,0,3.2599,3.267,3.2721,3.2742,3.2799,3.2822,3.2847,3.2887,3.2915,3.2956,3.2975,3.302,3.3045,3.3081,3.3107,3.3094,3.3171,3.3158,3.3187,3.3186,3.3203,3.3202,3.3266,3.3216,3.3215,3.3215,3.3215,0,3.2647,3.2689,3.2731,3.2762,3.2811,3.2837,3.2884,3.291,3.2946,3.2984,3.2999,3.3034,3.3066,3.3105,3.3126,3.3179,3.3189,3.3204,3.321,3.3204,3.3202,3.3221,3.322,3.3217,3.3217,3.3216,3.3216,0,3.2677,3.2706,3.2763,3.2813,3.2826,3.286,3.2903,3.2935,3.2959,3.3006,3.3019,3.3057,3.3105,3.3134,3.3194,3.3209,3.3267,3.327,3.3253,3.3256,3.3284,3.3282,3.3364,3.3377,3.3316,3.3316,3.3316,0,3.2706,3.2739,3.2792,3.2819,3.2844,3.2886,3.2915,3.2943,3.2973,3.3024,3.305,3.3099,3.3139,3.3215,3.3249,3.3295,3.3301,3.3327,3.3308,3.3302,3.3304,3.3303,3.3307,3.333,3.3331,3.3331,3.3331,0,3.2755,3.2769,3.281,3.2857,3.2892,3.293,3.2968,3.2989,3.3023,3.3056,3.3105,3.3137,3.3199,3.3248,3.3298,3.3325,3.3335,3.3337,3.3346,3.3342,3.3332,3.334,3.3264,3.3335,3.3335,3.3335,3.3334,3.3334,3.2788,3.2819,3.2862,3.2908,3.294,3.2976,3.3009,3.3038,3.3079,3.3133,3.3146,3.3199,3.3241,3.331,3.3337,3.3379,3.3375,3.3388,3.3392,3.3395,3.3397,3.3324,3.3388,3.3388,3.3388,3.3388,3.3388,0,3.284,3.2869,3.2911,3.2965,3.3001,3.3007,3.305,3.3081,3.3127,3.3166,3.3206,3.3264,3.3312,3.3349,3.3399,3.3426,3.3432,3.3438,3.3437,3.3444,3.3396,3.3384,3.3433,3.3433,3.3432,3.3432,3.3432,3.3432,3.2872,3.2926,3.2944,3.3015,3.3043,3.3095,3.312,3.3153,3.3185,3.3249,3.3289,3.3313,3.3353,3.3406,3.3451,3.346,3.3479,3.3485,3.3496,3.3452,3.3447,3.3442,3.3431,3.3488,3.3488,3.354,3.3541,3.3541]}]]